Regional Weather Roundup
Issued by NWS

Home | Current Version | Previous Version | Text Only | Print | Product List | Glossary On
Versions: 1 2 3 4 5 6 7 8 9 10 11 12 13 14 15 16 17 18 19 20 21 22 23 24 25 26 27 28 29 30 31 32 33 34 35 36 37 38 39 40 41 42 43 44 45 46 47 48 49 50
835
ASUS44 KJAN 240203
RWRMS

MISSISSIPPI HOURLY WEATHER ROUNDUP
NATIONAL WEATHER SERVICE JACKSON MS
900 PM CDT WED APR 23 2014

NOTE: "FAIR: INDICATES FEW OR NO CLOUDS BELOW 12,000 FEET WITH NO
SIGNIFICANT WEATHER AND/OR OBSTRUCTIONS TO VISIBILITY.

MSZ001>002-007>008-010>013-018>021-025>028-034>036-240300-
NORTHWEST MISSISSIPPI

CITY           SKY/WX    TMP DP  RH WIND       PRES   REMARKS
CLARKSDALE       N/A     68  41  37 CALM      29.93S
CLEVELAND      FAIR      66  53  63 CALM      29.91S
GREENWOOD      CLEAR     61  49  64 E5        29.92R
GREENVILLE     CLEAR     64  53  67 CALM      29.91R
GRENADA        FAIR      55  50  82 CALM      29.94R
OLIVE BRANCH   CLEAR     63  43  48 CALM      29.95R
OXFORD         FAIR      59  46  63 CALM      29.96R
TUNICA         CLEAR     63  43  48 NE3       29.94S HAZE
$$

MSZ003>006-009-014>017-022>024-029>033-037>039-240300-
NORTHEAST MISSISSIPPI

CITY           SKY/WX    TMP DP  RH WIND       PRES   REMARKS
BELMONT        FAIR      57  47  67 CALM      29.96S
COLUMBUS AFB   CLEAR     60  49  66 E2        29.94R
CORINTH        FAIR      59  43  55 CALM      29.96R
GOLDN TRIANGLE CLEAR     63  46  55 CALM      29.96S
STARKVILLE     FAIR      57  48  72 CALM      29.94S
TUPELO         CLEAR     61  45  55 CALM      29.94R
$$

MSZ040-058-240300-
CENTRAL MISSISSIPPI

CITY           SKY/WX    TMP DP  RH WIND       PRES   REMARKS
JACKSON INTL   CLEAR     65  52  62 CALM      29.91R
JACKSON HAWKNS CLEAR     67  51  56 CALM      29.92R
MERIDIAN KEY   CLEAR     61  56  83 CALM      29.93R
MERIDIAN NAS   CLEAR     63  51  65 CALM      29.94R
RAYMOND        FAIR      59  55  88 CALM      29.92R
VICKSBURG      CLEAR     63  56  78 CALM      29.91R
$$

MSZ059>079-240300-
SOUTH MISSISSIPPI

CITY           SKY/WX    TMP DP  RH WIND       PRES   REMARKS
BROOKHAVEN     FAIR      61  57  88 CALM      29.93R
HATTIESBURG    PTCLDY    66  60  81 CALM      29.91R
MCCOMB         CLEAR     64  53  67 CALM      29.91R
NATCHEZ        CLEAR     63  52  67 CALM      29.91R
PINE BELT      CLEAR     63  57  82 CALM      29.92R
$$

MSZ080>082-240300-
COASTAL MISSISSIPPI

CITY           SKY/WX    TMP DP  RH WIND       PRES   REMARKS
BAY ST LOUIS   CLEAR     68  63  83 CALM      29.97R
BILOXI         CLEAR     70  67  91 S6        29.92R
PASCAGOULA     PTCLDY    67  66  97 CALM      29.92R
GULFPORT       PTCLDY    73  66  78 CALM      29.91R
$$



USA.gov is the U.S. government's official web portal to all federal, state and local government web resources and services.